Starlink 11463

operational
NORAD ID: 62066 Int'l Des: 2024-217 Owner: SPXS Country: US Constellation: starlink
LEOCIRCULAR

Über Starlink 11463

Beschreibung wird geladen...

Live-Position

3D-Globus wird geladen...

Nächste Überflüge

Höhenverlauf

Altitude vs Time

uPlot chart will show altitude changes over time

Zweizeiliger Elementsatz

1 62066U 24217K 25349.89833077 .00222882 00000-0 17925-2 0 9994
2 62066 53.1561 124.2805 0000504 129.2338 230.8725 15.69749871 62015
Epoch: 15. Dez. 2025 • Age: 30 hours

Aktueller Status

Höhe 366.0 km
Geschwindigkeit 7.69 km/s
Subsatellitenpunkt -26.88°S, 178.13°W
Startdatum 24. Nov. 2024
Alter 1 years
Typ internet

Technische Details

Klassifizierung Payload
Masse 960.00 kg
Trockenmasse 910.00 kg
Gesamtmasse 960.00 kg
Länge 0.30 m
Durchmesser 4.10 m
Spannweite 29.00 m
Form Box + pan
Hersteller SPXS
Bus-Typ Starlink V2MD
Phasenstatus In Orbit
Besitzer/Staat SPXS/US

Große Konstellationen

Loading constellations...